Regional Weather Roundup
Issued by NWS

Home | Current Version | Previous Version | Graphics & Text | Print | Product List | Glossary On
Versions: 1 2 3 4 5 6 7 8 9 10 11 12 13 14 15 16 17 18 19 20 21 22 23 24 25 26 27 28 29 30 31 32 33 34 35 36 37 38 39 40 41 42 43 44 45 46 47 48 49 50
000
ASUS43 KIND 290659
RWRIN

WEATHER ROUNDUP FOR INDIANA
NATIONAL WEATHER SERVICE INDIANAPOLIS IN
300 AM EDT SUN MAY 29 2016

NOTE: "FAIR" INDICATES FEW OR NO CLOUDS BELOW 12,000 FEET WITH NO
SIGNIFICANT WEATHER AND/OR OBSTRUCTIONS TO VISIBILITY.

* - STATION DOES NOT REPORT WEATHER SUCH AS PRECIPITATION OR FOG.

+ - STATION NOT QUALITY CONTROLLED BY THE NATIONAL WEATHER SERVICE.
    USE DATA WITH CAUTION...ESPECIALLY DEWPOINT AND RELATIVE
    HUMIDITY OBSERVATIONS.

INZ001>003-010>013-019-020-290800-
NORTHWEST INDIANA

CITY           SKY/WX    TMP DP  RH WIND       PRES   REMARKS

$$

LMZ046-743>745-290800-
SOUTHERN LAKE MICHIGAN

STATION/POSITION TIME  TEMP    WIND        PRES    WAVE
                       AIR SEA DIR/SP/G            HT
                 (UTC) (F)     (DEG/KT/KT) (MB)    (FT)
BURNS HARBOR     0600   72     230/ 13/ 20 1016.3R
MICHIGAN CITY    0600   72     190/ 12/ 13   N/A
5NW MICH CITY    0600   65 56  230/  8/ 10   N/A     1

$$

INZ004-005-014>016-021>024-290800-
NORTH CENTRAL INDIANA

CITY           SKY/WX    TMP DP  RH WIND       PRES   REMARKS
GOSHEN         CLOUDY    71  64  78 S14       30.01F
SOUTH BEND     PTCLDY    70  64  81 SW10      30.01R

$$

INZ006>009-017-018-025>027-290800-
NORTHEAST INDIANA

CITY           SKY/WX    TMP DP  RH WIND       PRES   REMARKS
ANGOLA *+        N/A     70  63  78 S7        30.04F
FORT WAYNE     CLOUDY    69  65  86 S7        30.05S

$$

INZ028-029-035-036-043>045-051>053-290800-
WEST CENTRAL INDIANA

CITY           SKY/WX    TMP DP  RH WIND       PRES   REMARKS
LAFAYETTE      MOCLDY    68  60  75 W7        30.04R
TERRE HAUTE    CLOUDY    70  65  84 S3        30.03S

$$

INZ030>032-037>040-046>048-054>057-064-065-290800-
CENTRAL INDIANA

CITY           SKY/WX    TMP DP  RH WIND       PRES   REMARKS
INDIANAPOLIS   PTCLDY    68  65  90 SE6       30.04R
-EAGLE CREEK   PTCLDY    70  65  84 CALM      30.05R
KOKOMO *+      CLOUDY    68  63  83 S6        30.05S
SHELBYVILLE    PTCLDY    72  65  78 S8        30.06S

$$

INZ033-034-041-042-049-050-058-059-290800-
EAST CENTRAL INDIANA

CITY           SKY/WX    TMP DP  RH WIND       PRES   REMARKS
MUNCIE         PTCLDY    71  65  81 S7        30.06S

$$

INZ060-061-067>069-081>083-085>088-290800-
SOUTHWEST INDIANA

CITY           SKY/WX    TMP DP  RH WIND       PRES   REMARKS
EVANSVILLE     CLOUDY    70  66  87 CALM      30.05S
HUNTINGBURG *+ PTCLDY    70  64  83 S7        30.05F

$$

INZ062-063-066-070>080-084-089>092-290800-
SOUTH CENTRAL AND SOUTHEAST INDIANA

CITY           SKY/WX    TMP DP  RH WIND       PRES   REMARKS
BLOOMINGTON    MOCLDY    68  64  87 S6        30.05S
MADISON *+     CLOUDY    68  63  83 SE3       30.11S
SEYMOUR +      CLOUDY    70  64  83 CALM      30.06F

$$





USA.gov is the U.S. government's official web portal to all federal, state and local government web resources and services.